Starlink 5492

operational
NORAD ID: 55331 Int'l Des: 2023-013 Owner: SPXS Country: US Constellation: starlink
LEOCIRCULAR

关于 Starlink 5492

正在加载描述...

实时位置

正在加载3D地球...

即将过境

高度历史

Altitude vs Time

uPlot chart will show altitude changes over time

两行轨道根数

1 55331U 23013A 25351.51610199 .00001180 00000-0 10243-3 0 9997
2 55331 43.0058 27.2507 0001340 272.8457 87.2232 15.02537629160422
Epoch: Dec 17, 2025 • Age: 18 hours

当前状态

高度 562.3 km
速度 7.59 km/s
星下点 39.28°N, 41.17°W
发射日期 Jan 26, 2023
运行时间 2.8 years
类型 internet

技术详情

分类 Payload
质量 305.00 kg
干质量 290.00 kg
总质量 305.00 kg
长度 0.20 m
直径 2.80 m
跨度 9.00 m
形状 Box + pan
制造商 SPXS
平台类型 Starlink
阶段状态 In Orbit
所有者/国家 SPXS/US

大型星座

Loading constellations...